SCP
0 0 0 0 0 0 0 0 0 0 0 0 0 0 0 0 0 0 0 0 0 0 0 0 0 0 0 0 0 0 0 0 0 0 0 0 0 0 0 0 0 0 0
0 0 0 -0 0 0 0 0 0 0 0 0 0 0 0 0 0 0 0 0 0 0 0 0 0 0 0 0 0 0 0 0 0 -0 -0 -0 -0 -0 0 0 0 0 0
0 0 0 0 0 0 0 0 0 0 0 0 0 0 0 0 0 0 0 0 0 0 0 0 0 0 0 0 0 0 0 0 0 -0 -0 -0 -0 -0 -0 -0 -0 -0 -0
0 0 0 0 0 0 0 0 0 0 0 0 0 0 0 0 0 0 0 0 0 0 0 0 0 0 0 0 0 0 0 0 0 0 0 -0 0 0 -0 -0 -0 -0 -0
0 0 0 0 0 0 0 0 0 0 0 0 0 0 0 0 0 0 0 0 0 0 0 0 0 0 0 0 0 0 0 0 0 0 0 0 0 0 0 0 -0 -0 -0
0 0 0 0 0 0 0 0 0 0 0 0 0 0 0 0 0 0 0 0 0 0 0 0 0 0 0 0 0 0 0 0 0 0 0 0 0 0 0 0 -0 -0 -0
0 0 0 0 0 0 0 0 0 0 0 0 -0 -0 0 0 0 0 0 0 0 0 0 0 0 0 0 0 0 0 0 0 0 0 0 0 0 0 0 0 0 0 -0
0 0 0 0 0 0 0 0 0 0 0 0 0 -0 0 0 0 0 0 0 0 0 0 0 0 0 0 0 0 0 0 0 0 0 0 0 0 0 0 0 0 0 0
0 0 0 0 0 0 0 0 0 0 0 0 -0 0 0 0 0 0 0 0 0 0 0 0 0 0 0 0 0 0 0 0 0 0 0 0 0 0 0 0 0 0 0
0 0 0 0 0 0 0 0 0 0 -0 -0 0 0 0 0 0 0 0 0 0 0 0 0 0 0 0 0 0 0 0 0 0 0 0 0 0 0 0 0 0 0 0
0 0 0 0 0 0 0 0 0 0 -0 0 0 0 0 0 0 0 0 0 0 0 0 0 0 0 0 0 0 0 0 0 0 0 0 0 0 0 0 0 0 0 0
0 0 0 0 0 0 0 0 0 0 0 0 0 0 0 0 0 0 0 0 0 0 0 0 0 0 0 0 0 0 0 0 0 0 0 0 0 0 0 0 0 0 0
0 0 0 0 0 0 0 0 0 0 0 0 0 0 0 0 0 0 0 0 0 0 0 0 0 0 0 0 0 0 0 0 0 0 0 0 0 0 0 0 0 0 0
0 0 0 0 0 0 0 0 0 0 0 0 0 0 0 0 0 0 0 0 0 0 0 0 0 0 0 0 0 0 0 0 0 0 0 0 0 0 0 0 0 0 0
0 0 0 0 0 0 0 0 0 0 0 0 0 0 0 0 0 0 0 0 0 0 0 0 0 0 0 0 0 0 0 0 0 0 0 0 0 0 0 0 0 0 0
0 0 0 0 0 0 0 0 0 0 0 0 0 0 0 0 0 0 0 0 0 0 0 0 0 0 0 0 0 0 0 0 0 0 0 0 0 0 0 0 0 0 0
0 0 0 0 0 0 0 0 0 0 0 0 0 0 0 0 0 0 0 0 0 0 0 0 0 0 0 0 0 0 0 0 0 0 0 0 0 0 0 0 0 0 0
0 0 0 0 0 0 0 0 0 0 0 0 0 0 0 0 0 0 0 0 0 0 0 0 0 0 0 0 0 0 0 0 0 0 0 0 0 0 0 0 0 0 0
0 0 0 0 0 0 0 0 0 0 0 0 0 0 0 0 0 0 0 0 0 0 0 0 0 0 0 0 0 0 0 0 0 0 0 0 0 0 0 0 -0 -0 -0
0 0 0 0 0 0 0 0 0 0 0 0 0 0 0 0 0 0 0 0 0 0 0 0 0 0 0 0 0 0 0 0 0 0 0 0 0 0 0 -0 -0 -0 -0
0 0 0 0 0 0 0 0 0 0 0 0 0 0 0 0 0 0 0 0 0 0 0 0 0 0 0 0 0 0 0 0 0 0 0 0 0 0 0 0 -0 -0 -0
0 0 0 0 0 0 0 0 0 0 0 0 0 0 0 0 0 0 0 0 0 0 0 0 0 0 0 0 0 0 0 0 0 0 0 0 0 0 0 0 -0 -0 -0
0 0 0 0 0 0 0 0 0 0 0 0 0 0 0 0 0 0 0 0 0 0 0 0 0 0 0 0 0 0 0 0 0 0 0 0 0 0 0 0 0 -0 -0
0 0 0 0 0 0 0 0 0 0 0 0 0 0 0 0 0 0 0 0 0 0 0 0 0 0 0 0 0 0 0 0 0 0 0 0 0 0 0 0 -0 0 0
0 0 0 0 0 0 0 0 0 0 0 0 0 0 0 0 0 0 0 0 0 0 0 0 0 0 0 0 0 0 0 0 0 0 0 0 0 0 0 0 0 0 0
0 0 0 0 0 0 0 0 0 0 0 0 0 0 0 0 0 0 0 0 0 0 0 0 0 0 0 0 0 0 0 0 0 0 0 0 0 0 0 0 0 0 0
Wind_Speed_500mb
27 24 20 17 15 11 6 9 10 11 15 19 20 24 28 31 35 33 28 25 23 20 18 17 24 28 25 19 14 19 25 26 21 24 25 40 37 32 28 38 48 47 47
24 23 21 20 17 13 11 12 12 12 16 20 23 27 32 34 32 28 23 21 18 15 15 17 21 18 25 24 20 29 26 15 15 20 27 25 33 36 46 53 52 53 50
29 24 23 22 18 16 14 12 12 14 16 19 27 32 31 29 25 23 21 18 17 15 10 15 25 24 12 12 12 9 9 18 17 22 27 20 22 33 34 28 35 46 38
27 27 21 23 20 18 16 15 14 13 15 23 27 27 28 25 24 21 19 17 18 13 5 15 22 27 28 26 20 13 17 20 22 23 24 24 28 31 25 31 34 34 32
24 24 25 26 22 22 20 18 14 14 19 22 24 25 24 23 21 16 14 15 16 5 3 10 18 23 27 29 30 32 23 25 25 26 27 29 26 28 27 33 34 32 35
26 29 31 29 27 26 24 20 15 15 18 20 20 21 25 22 16 14 12 21 18 15 20 22 23 28 30 31 31 32 23 25 28 29 29 30 30 30 33 32 31 35 37
33 34 32 31 30 30 27 20 16 18 19 19 22 28 19 20 16 12 17 31 23 29 26 22 16 25 29 30 32 35 34 26 26 28 30 31 33 35 35 35 36 38 41
32 31 32 33 34 31 25 20 18 17 19 21 21 26 14 18 16 17 35 22 28 28 30 23 28 37 35 32 36 39 40 40 35 30 31 34 36 38 40 42 44 45 45
33 33 35 37 34 31 27 21 17 14 23 28 33 29 13 10 24 18 26 24 22 40 33 30 36 38 35 44 42 43 43 42 40 40 39 36 36 37 42 46 47 50 51
37 36 40 38 35 33 27 20 17 20 29 45 47 37 29 28 13 17 15 24 37 36 30 30 36 37 45 46 45 44 43 42 43 43 41 37 40 43 46 48 51 53 56
42 42 43 41 39 36 30 23 18 33 48 42 32 32 27 29 28 24 36 27 31 25 25 32 34 42 45 49 48 47 51 51 45 46 50 55 55 52 53 55 58 59 60
49 48 47 46 43 39 34 26 40 53 34 32 31 27 29 18 17 20 31 36 36 31 28 26 31 39 47 51 51 56 52 50 52 59 66 70 72 68 61 62 62 63 64
59 55 53 53 47 44 38 41 38 37 29 23 27 28 27 26 26 26 28 36 37 33 32 26 26 30 35 44 52 52 50 56 64 70 73 71 70 70 67 62 60 60 60
63 60 57 55 49 44 37 38 31 30 19 24 28 27 27 24 28 30 30 32 40 39 34 37 29 30 32 34 45 52 62 70 70 68 69 69 67 66 63 54 53 57 57
61 63 61 56 50 42 37 31 26 18 16 30 29 27 25 25 28 30 34 33 31 37 40 31 28 29 33 46 49 58 66 67 67 67 66 65 64 61 57 54 54 55 56
64 66 66 58 47 38 37 27 19 10 29 30 25 25 25 27 30 29 30 33 32 37 38 34 31 32 41 46 53 62 63 64 64 61 62 62 60 60 59 53 55 57 59
67 68 64 53 41 32 22 15 13 21 30 26 23 23 26 27 30 30 30 31 30 34 38 39 38 36 51 53 49 54 58 59 57 60 61 61 62 62 60 61 59 56 57
66 65 57 47 31 27 26 20 22 38 24 30 29 30 29 29 31 33 33 34 33 32 37 45 40 39 42 45 52 56 54 54 54 57 56 52 54 54 44 42 46 51 53
60 62 55 43 40 35 28 27 33 33 30 37 37 37 35 34 34 35 34 37 37 41 44 43 46 40 39 37 40 44 45 49 46 53 52 47 40 35 41 43 47 50 54
50 56 48 40 36 42 34 33 50 41 37 44 44 44 42 40 37 36 37 38 41 45 40 41 42 40 37 36 40 39 41 40 43 46 37 37 34 41 41 37 45 49 50
49 50 52 51 49 40 35 52 50 36 44 46 46 48 46 44 40 39 40 40 43 44 37 38 40 37 37 37 38 37 39 41 41 35 33 33 40 38 35 37 43 46 47
49 53 47 38 42 56 58 59 38 41 45 49 52 51 49 48 43 42 42 42 45 44 42 37 36 38 39 37 34 33 37 39 45 34 43 46 38 39 36 37 46 52 47
50 44 45 57 64 60 53 39 39 47 52 52 53 52 53 54 47 46 48 47 49 47 46 40 40 38 40 36 33 34 35 39 45 45 45 47 38 38 34 39 40 40 45
32 50 44 50 48 51 38 37 43 51 55 55 53 52 54 54 53 51 53 53 51 49 46 43 45 44 44 39 36 32 38 42 44 41 37 48 34 38 40 38 26 30 38
31 37 46 41 40 37 33 42 49 50 49 50 51 53 51 53 59 57 57 59 54 52 46 43 45 44 42 39 36 32 35 41 47 43 35 26 32 46 41 36 25 38 36
27 31 32 34 38 41 44 48 49 53 55 55 54 55 57 57 61 59 62 61 60 55 46 43 45 43 39 37 34 33 33 38 40 40 17 31 37 34 36 25 37 41 39
Wind_Direction_500mb
182 186 191 203 208 208 225 299 290 289 309 312 320 321 322 321 321 323 319 311 302 292 286 271 278 291 301 301 297 312 310 326 337 341 339 326 329 332 334 330 330 336 334
192 202 217 218 218 227 255 283 268 282 297 300 305 316 323 324 325 325 318 313 311 304 284 252 248 246 279 292 288 316 322 351 334 334 332 335 335 328 331 333 336 335 334
205 218 229 219 226 248 263 266 262 272 282 305 320 324 323 323 322 324 326 327 328 329 308 268 231 245 227 259 289 313 326 311 310 331 316 319 323 324 331 344 346 340 344
212 221 230 232 244 254 253 245 249 271 304 320 323 323 323 325 327 328 330 337 348 350 292 248 243 244 239 243 263 268 269 290 301 306 306 305 310 318 323 330 335 339 336
224 231 238 240 246 251 241 238 253 284 314 319 324 324 329 323 321 326 332 344 348 356 300 267 257 261 266 271 276 279 279 286 288 293 294 297 301 308 312 319 323 328 329
236 244 242 241 246 236 228 238 261 296 310 324 329 334 331 326 320 313 311 332 323 310 307 307 271 270 275 280 280 276 276 284 287 289 292 293 294 295 302 310 314 316 317
247 245 237 237 231 222 229 245 273 301 323 338 353 337 329 329 308 304 307 318 314 311 324 309 290 304 301 299 295 292 294 289 289 292 292 292 292 295 298 302 305 305 307
239 233 229 224 221 226 238 253 280 313 333 343 339 340 325 317 300 298 301 301 308 317 326 294 288 306 305 306 300 298 297 292 292 293 295 297 296 295 296 297 298 299 300
229 224 221 219 225 235 242 256 284 324 336 337 339 330 329 298 302 290 301 305 298 316 313 297 296 302 294 305 296 295 290 287 290 290 292 296 295 291 292 293 293 294 295
228 224 223 224 232 237 245 263 297 327 339 334 322 312 311 301 301 296 298 292 304 313 311 293 293 288 297 295 290 285 286 289 293 292 291 294 295 294 292 291 290 289 290
228 230 229 232 238 242 248 262 296 326 324 319 309 302 301 297 293 287 296 296 303 305 303 293 282 284 288 287 284 277 281 283 288 292 295 298 299 296 293 290 288 288 287
232 230 231 236 241 244 245 267 304 311 314 299 297 295 290 280 280 285 293 302 303 307 303 297 295 296 286 282 276 285 286 284 291 297 298 298 295 292 289 288 286 285 285
234 234 233 236 238 243 255 280 305 316 297 298 303 296 297 297 294 291 291 295 293 297 301 305 291 295 294 289 289 287 292 296 297 297 296 295 293 290 288 287 286 285 285
246 237 236 237 243 248 272 295 315 296 283 305 297 297 291 288 290 287 279 285 292 294 291 297 293 299 292 285 292 298 301 301 301 299 298 297 294 291 289 290 284 284 284
243 241 240 243 242 256 280 302 288 270 306 305 296 286 279 276 281 282 281 280 277 287 296 301 289 287 292 298 299 301 301 301 301 301 299 297 295 293 291 287 287 285 282
240 243 241 238 244 270 279 272 252 288 312 298 285 280 283 275 278 289 286 278 273 280 283 296 290 284 298 298 301 303 303 303 303 302 300 298 297 296 291 288 285 283 281
239 240 240 236 258 269 236 239 260 292 309 284 280 284 289 279 282 291 290 275 276 278 282 290 287 287 301 300 301 304 307 307 306 304 302 301 297 290 286 288 289 289 287
241 238 231 239 252 236 233 245 255 294 284 279 278 280 289 282 283 287 290 283 277 273 280 287 289 288 295 298 304 307 310 308 305 303 306 304 292 289 292 288 292 291 290
235 229 226 241 261 222 231 235 265 291 271 276 273 279 286 281 283 282 286 284 281 283 286 282 287 286 296 300 304 308 308 310 307 309 315 299 294 291 291 291 292 294 292
234 222 230 234 222 224 232 238 291 289 275 275 272 275 281 279 281 279 282 284 280 282 280 280 284 287 292 298 305 310 309 310 310 314 311 302 301 293 289 290 294 294 295
223 230 225 220 219 224 229 282 295 282 279 277 268 272 278 276 279 277 281 283 280 280 276 278 281 285 292 298 302 304 306 311 315 314 308 306 306 301 296 299 306 308 298
230 226 223 216 224 266 269 285 285 280 282 278 275 273 274 270 274 281 282 276 279 280 279 273 276 280 291 296 300 302 307 313 315 317 311 307 305 302 299 299 306 303 294
227 216 241 267 270 280 279 287 283 285 284 282 277 273 270 269 271 278 277 274 280 281 283 274 273 279 288 296 295 300 303 304 306 308 309 306 308 300 302 308 318 312 304
240 274 277 282 282 283 281 282 287 287 286 284 279 273 271 269 266 274 273 270 276 278 284 280 279 286 290 292 294 296 300 303 305 307 306 301 306 303 307 316 324 324 326
290 282 288 284 281 284 285 290 292 292 292 290 284 275 267 268 269 270 266 266 270 273 280 280 278 283 285 286 295 293 298 303 307 311 312 301 310 309 308 309 315 322 321
285 287 289 288 287 289 292 293 293 293 294 294 291 283 270 265 273 274 267 264 262 268 272 277 279 282 283 285 287 285 291 295 302 313 299 312 312 320 316 310 312 321 320
Wind_Speed_850mb
27 24 20 17 15 11 6 9 10 11 15 19 20 24 28 31 35 33 28 25 23 20 18 17 24 28 25 19 14 19 25 26 21 24 25 40 37 32 28 38 48 47 47
24 23 21 20 17 13 11 12 12 12 16 20 23 27 32 34 32 28 23 21 18 15 15 17 21 18 25 24 20 29 26 15 15 20 27 25 33 36 46 53 52 53 50
29 24 23 22 18 16 14 12 12 14 16 19 27 32 31 29 25 23 21 18 17 15 10 15 25 24 12 12 12 9 9 18 17 22 27 20 22 33 34 28 35 46 38
27 27 21 23 20 18 16 15 14 13 15 23 27 27 28 25 24 21 19 17 18 13 5 15 22 27 28 26 20 13 17 20 22 23 24 24 28 31 25 31 34 34 32
24 24 25 26 22 22 20 18 14 14 19 22 24 25 24 23 21 16 14 15 16 5 3 10 18 23 27 29 30 32 23 25 25 26 27 29 26 28 27 33 34 32 35
26 29 31 29 27 26 24 20 15 15 18 20 20 21 25 22 16 14 12 21 18 15 20 22 23 28 30 31 31 32 23 25 28 29 29 30 30 30 33 32 31 35 37
33 34 32 31 30 30 27 20 16 18 19 19 22 28 19 20 16 12 17 31 23 29 26 22 16 25 29 30 32 35 34 26 26 28 30 31 33 35 35 35 36 38 41
32 31 32 33 34 31 25 20 18 17 19 21 21 26 14 18 16 17 35 22 28 28 30 23 28 37 35 32 36 39 40 40 35 30 31 34 36 38 40 42 44 45 45
33 33 35 37 34 31 27 21 17 14 23 28 33 29 13 10 24 18 26 24 22 40 33 30 36 38 35 44 42 43 43 42 40 40 39 36 36 37 42 46 47 50 51
37 36 40 38 35 33 27 20 17 20 29 45 47 37 29 28 13 17 15 24 37 36 30 30 36 37 45 46 45 44 43 42 43 43 41 37 40 43 46 48 51 53 56
42 42 43 41 39 36 30 23 18 33 48 42 32 32 27 29 28 24 36 27 31 25 25 32 34 42 45 49 48 47 51 51 45 46 50 55 55 52 53 55 58 59 60
49 48 47 46 43 39 34 26 40 53 34 32 31 27 29 18 17 20 31 36 36 31 28 26 31 39 47 51 51 56 52 50 52 59 66 70 72 68 61 62 62 63 64
59 55 53 53 47 44 38 41 38 37 29 23 27 28 27 26 26 26 28 36 37 33 32 26 26 30 35 44 52 52 50 56 64 70 73 71 70 70 67 62 60 60 60
63 60 57 55 49 44 37 38 31 30 19 24 28 27 27 24 28 30 30 32 40 39 34 37 29 30 32 34 45 52 62 70 70 68 69 69 67 66 63 54 53 57 57
61 63 61 56 50 42 37 31 26 18 16 30 29 27 25 25 28 30 34 33 31 37 40 31 28 29 33 46 49 58 66 67 67 67 66 65 64 61 57 54 54 55 56
64 66 66 58 47 38 37 27 19 10 29 30 25 25 25 27 30 29 30 33 32 37 38 34 31 32 41 46 53 62 63 64 64 61 62 62 60 60 59 53 55 57 59
67 68 64 53 41 32 22 15 13 21 30 26 23 23 26 27 30 30 30 31 30 34 38 39 38 36 51 53 49 54 58 59 57 60 61 61 62 62 60 61 59 56 57
66 65 57 47 31 27 26 20 22 38 24 30 29 30 29 29 31 33 33 34 33 32 37 45 40 39 42 45 52 56 54 54 54 57 56 52 54 54 44 42 46 51 53
60 62 55 43 40 35 28 27 33 33 30 37 37 37 35 34 34 35 34 37 37 41 44 43 46 40 39 37 40 44 45 49 46 53 52 47 40 35 41 43 47 50 54
50 56 48 40 36 42 34 33 50 41 37 44 44 44 42 40 37 36 37 38 41 45 40 41 42 40 37 36 40 39 41 40 43 46 37 37 34 41 41 37 45 49 50
49 50 52 51 49 40 35 52 50 36 44 46 46 48 46 44 40 39 40 40 43 44 37 38 40 37 37 37 38 37 39 41 41 35 33 33 40 38 35 37 43 46 47
49 53 47 38 42 56 58 59 38 41 45 49 52 51 49 48 43 42 42 42 45 44 42 37 36 38 39 37 34 33 37 39 45 34 43 46 38 39 36 37 46 52 47
50 44 45 57 64 60 53 39 39 47 52 52 53 52 53 54 47 46 48 47 49 47 46 40 40 38 40 36 33 34 35 39 45 45 45 47 38 38 34 39 40 40 45
32 50 44 50 48 51 38 37 43 51 55 55 53 52 54 54 53 51 53 53 51 49 46 43 45 44 44 39 36 32 38 42 44 41 37 48 34 38 40 38 26 30 38
31 37 46 41 40 37 33 42 49 50 49 50 51 53 51 53 59 57 57 59 54 52 46 43 45 44 42 39 36 32 35 41 47 43 35 26 32 46 41 36 25 38 36
27 31 32 34 38 41 44 48 49 53 55 55 54 55 57 57 61 59 62 61 60 55 46 43 45 43 39 37 34 33 33 38 40 40 17 31 37 34 36 25 37 41 39
Wind_Direction_850mb
182 186 191 203 208 208 225 299 290 289 309 312 320 321 322 321 321 323 319 311 302 292 286 271 278 291 301 301 297 312 310 326 337 341 339 326 329 332 334 330 330 336 334
192 202 217 218 218 227 255 283 268 282 297 300 305 316 323 324 325 325 318 313 311 304 284 252 248 246 279 292 288 316 322 351 334 334 332 335 335 328 331 333 336 335 334
205 218 229 219 226 248 263 266 262 272 282 305 320 324 323 323 322 324 326 327 328 329 308 268 231 245 227 259 289 313 326 311 310 331 316 319 323 324 331 344 346 340 344
212 221 230 232 244 254 253 245 249 271 304 320 323 323 323 325 327 328 330 337 348 350 292 248 243 244 239 243 263 268 269 290 301 306 306 305 310 318 323 330 335 339 336
224 231 238 240 246 251 241 238 253 284 314 319 324 324 329 323 321 326 332 344 348 356 300 267 257 261 266 271 276 279 279 286 288 293 294 297 301 308 312 319 323 328 329
236 244 242 241 246 236 228 238 261 296 310 324 329 334 331 326 320 313 311 332 323 310 307 307 271 270 275 280 280 276 276 284 287 289 292 293 294 295 302 310 314 316 317
247 245 237 237 231 222 229 245 273 301 323 338 353 337 329 329 308 304 307 318 314 311 324 309 290 304 301 299 295 292 294 289 289 292 292 292 292 295 298 302 305 305 307
239 233 229 224 221 226 238 253 280 313 333 343 339 340 325 317 300 298 301 301 308 317 326 294 288 306 305 306 300 298 297 292 292 293 295 297 296 295 296 297 298 299 300
229 224 221 219 225 235 242 256 284 324 336 337 339 330 329 298 302 290 301 305 298 316 313 297 296 302 294 305 296 295 290 287 290 290 292 296 295 291 292 293 293 294 295
228 224 223 224 232 237 245 263 297 327 339 334 322 312 311 301 301 296 298 292 304 313 311 293 293 288 297 295 290 285 286 289 293 292 291 294 295 294 292 291 290 289 290
228 230 229 232 238 242 248 262 296 326 324 319 309 302 301 297 293 287 296 296 303 305 303 293 282 284 288 287 284 277 281 283 288 292 295 298 299 296 293 290 288 288 287
232 230 231 236 241 244 245 267 304 311 314 299 297 295 290 280 280 285 293 302 303 307 303 297 295 296 286 282 276 285 286 284 291 297 298 298 295 292 289 288 286 285 285
234 234 233 236 238 243 255 280 305 316 297 298 303 296 297 297 294 291 291 295 293 297 301 305 291 295 294 289 289 287 292 296 297 297 296 295 293 290 288 287 286 285 285
246 237 236 237 243 248 272 295 315 296 283 305 297 297 291 288 290 287 279 285 292 294 291 297 293 299 292 285 292 298 301 301 301 299 298 297 294 291 289 290 284 284 284
243 241 240 243 242 256 280 302 288 270 306 305 296 286 279 276 281 282 281 280 277 287 296 301 289 287 292 298 299 301 301 301 301 301 299 297 295 293 291 287 287 285 282
240 243 241 238 244 270 279 272 252 288 312 298 285 280 283 275 278 289 286 278 273 280 283 296 290 284 298 298 301 303 303 303 303 302 300 298 297 296 291 288 285 283 281
239 240 240 236 258 269 236 239 260 292 309 284 280 284 289 279 282 291 290 275 276 278 282 290 287 287 301 300 301 304 307 307 306 304 302 301 297 290 286 288 289 289 287
241 238 231 239 252 236 233 245 255 294 284 279 278 280 289 282 283 287 290 283 277 273 280 287 289 288 295 298 304 307 310 308 305 303 306 304 292 289 292 288 292 291 290
235 229 226 241 261 222 231 235 265 291 271 276 273 279 286 281 283 282 286 284 281 283 286 282 287 286 296 300 304 308 308 310 307 309 315 299 294 291 291 291 292 294 292
234 222 230 234 222 224 232 238 291 289 275 275 272 275 281 279 281 279 282 284 280 282 280 280 284 287 292 298 305 310 309 310 310 314 311 302 301 293 289 290 294 294 295
223 230 225 220 219 224 229 282 295 282 279 277 268 272 278 276 279 277 281 283 280 280 276 278 281 285 292 298 302 304 306 311 315 314 308 306 306 301 296 299 306 308 298
230 226 223 216 224 266 269 285 285 280 282 278 275 273 274 270 274 281 282 276 279 280 279 273 276 280 291 296 300 302 307 313 315 317 311 307 305 302 299 299 306 303 294
227 216 241 267 270 280 279 287 283 285 284 282 277 273 270 269 271 278 277 274 280 281 283 274 273 279 288 296 295 300 303 304 306 308 309 306 308 300 302 308 318 312 304
240 274 277 282 282 283 281 282 287 287 286 284 279 273 271 269 266 274 273 270 276 278 284 280 279 286 290 292 294 296 300 303 305 307 306 301 306 303 307 316 324 324 326
290 282 288 284 281 284 285 290 292 292 292 290 284 275 267 268 269 270 266 266 270 273 280 280 278 283 285 286 295 293 298 303 307 311 312 301 310 309 308 309 315 322 321
285 287 289 288 287 289 292 293 293 293 294 294 291 283 270 265 273 274 267 264 262 268 272 277 279 282 283 285 287 285 291 295 302 313 299 312 312 320 316 310 312 321 320